OPS 4682 DEB, 17722

Orbit data source: Space-Track

OPS 4682 DEB, 17722 is space debris in LEO originally from a launch on Sat, 03 Apr 1965 UTC launched from the Air Force Western Test Range (AFWTR). Debris objects in space refer to the collection of defunct objects orbiting the Earth. Examples of debris include non-operational satellites, rocket bodies, and fragments generated from explosions, collisions, or faulty payload assembly.

Loading next visibility...
Identifier
17722, 1965-027W
Orbit
LEO
Country
Flag of USUS
Related business
Manufacturer
Unknown
Mission
Spacecraft
Bus & Motor
Unknown
Mass
Unknown
Launch date (UTC)
1965-04-03 (61 years ago)
Launch vehicle
Unknown
Launch site
Air Force Western Test Range (AFWTR)
Object type
Payload
Rocket body
Debris
Shape & HBR
Unknown shape, 0.1 m
Radar Cross Section
Medium (>0.1 m² and <1 m²)

Expand to show TLE details & history
Last TLE update: 10 hours ago

TLE from 10 hours ago
0 OPS 4682 DEB
1 17722U 65027W   26263.22073132 -.00000320  00000-0 -11061-2 0  9996
2 17722  90.2412 356.4564 0002408  47.5849 340.5856 12.98981712956697
Epoch: 2026-09-20T05:17Z
TLE epoch observation values (Epoch: 2026-09-20T05:17:51.186Z)
Latitude
28.20003°
Longitude
-82.25359°
Altitude
1,267.817 km
Speed
7.225 km/s
True Right ascension
23h 45m 18s
True Declination
28° 03' 60"
Sunlit
Object was in full shadow at epoch
Visualization orbit readout
Latitude
Unknown
Longitude
Unknown
Altitude
Unknown
Speed
Unknown
Apparent Right ascension
Unknown
Apparent Declination
Unknown
Sunlit
N/A
Visualization observer readout
Local Sidereal Time
07:58:29
Azimuth
Unknown
Elevation
Unknown
Doppler factor
Unknown
Orbital elements
Apogee altitude
1,265.048 km
Perigee altitude
1,261.367 km
Semi-major axis
7,641.344 km
Eccentricity
0.00024
Inclination
90.2412°
RAAN
356.4564°
Arg. of periapsis
47.5849°
True anomaly
340.57643°
Mean anomaly
340.5856°
Eccentric anomaly
340.58101°
Mean motion
3.24929 °/min
Orbital period
110.79 mins
BSTAR
-0.0011061
Loading maneuver chart data...
Computing Atmospheric mass density...
Loading historical data...
Loading historical data...
Loading historical data...
Loading historical data...
Loading historical data...
Loading historical data...
Loading historical data...

Documentation

Showing up to 5 results
|